Howell, MI

6:38 AM EDT on March 25, 2017 (GMT -0400)
Livingston County

Weather History for KOZW - November, 2010

Change the Weather History Date:

Monday, November 1, 2010

  Actual Average Record
Temperature  
Mean Temperature 36 °F -  
Max Temperature 46 °F 52 °F 76 °F (2016)
Min Temperature 26 °F 36 °F 24 °F (2014)
Degree Days  
Heating Degree Days 29    
Moisture  
Dew Point 26 °F    
Average Humidity 74    
Maximum Humidity 93    
Minimum Humidity 37    
Precipitation  
Precipitation 0.00 in - - ()
Sea Level Pressure  
Sea Level Pressure 30.41 in    
Wind  
Wind Speed 0 mph (NW)    
Max Wind Speed 5 mph    
Max Gust Speed -    
Visibility 10 miles    
Events      
Averages and records for this station are not official NWS values.
T = Trace of Precipitation, MM = Missing Value Source: NWS Daily Summary

Daily Weather History Graph

Daily Weather History Graph

Search for Another Location

Airport or City:

Trip Planner

Search our weather history database for the weather conditions in past years. The results will help you decide how hot, cold, wet, or windy it might be!

Date:

Astronomy

Nov. 01, 2010 Rise Set
Actual Time 8:09 AM EDT 6:28 PM EDT
Civil Twilight 7:40 AM EDT 6:58 PM EDT
Nautical Twilight 7:07 AM EDT 7:31 PM EDT
Astronomical Twilight 6:34 AM EDT 8:04 PM EDT
Moon 2:37 AM EDT (11/1) 3:41 PM EDT (11/1)
Length of Visible Light 11h 17m
Length of Day
10h 19m
Waning Crescent, 26% of the Moon is Illuminated
Nov 1
Waning Crescent
Nov 6
New
Nov 13
First Quarter
Nov 21
Full
Nov 28
Last Quarter

Hourly Weather History & Observations

Time (EDT) Temp. Windchill Dew Point Humidity Pressure Visibility Wind Dir Wind Speed Gust Speed Precip Events Conditions
12:35 AM 32.0 °F - 28.4 °F 87% 30.33 in 10.0 mi Calm Calm - N/A   Clear
12:55 AM 32.0 °F - 28.4 °F 87% 30.33 in 10.0 mi Calm Calm - N/A   Clear
1:15 AM 30.2 °F - 28.4 °F 93% 30.34 in 10.0 mi Calm Calm - N/A   Clear
1:35 AM 30.2 °F - 28.4 °F 93% 30.35 in 10.0 mi Calm Calm - N/A   Clear
1:55 AM 28.4 °F 24.6 °F 26.6 °F 93% 30.35 in 10.0 mi WSW 3.5 mph - N/A   Clear
2:15 AM 30.2 °F 26.7 °F 28.4 °F 93% 30.36 in 10.0 mi West 3.5 mph - N/A   Clear
2:35 AM 30.2 °F - 26.6 °F 86% 30.36 in 10.0 mi Calm Calm - N/A   Clear
2:55 AM 30.2 °F - 28.4 °F 93% 30.36 in 10.0 mi Calm Calm - N/A   Clear
3:15 AM 30.2 °F - 28.4 °F 93% 30.36 in 10.0 mi Calm Calm - N/A   Clear
3:35 AM 28.4 °F - 26.6 °F 93% 30.35 in 10.0 mi Calm Calm - N/A   Clear
3:55 AM 28.4 °F - 26.6 °F 93% 30.35 in 10.0 mi Calm Calm - N/A   Clear
4:15 AM 30.2 °F - 28.4 °F 93% 30.35 in 10.0 mi Calm Calm - N/A   Clear
4:35 AM 30.2 °F - 26.6 °F 86% 30.35 in 10.0 mi Calm Calm - N/A   Clear
4:55 AM 30.2 °F - 26.6 °F 86% 30.35 in 10.0 mi Calm Calm - N/A   Clear
5:15 AM 30.2 °F - 26.6 °F 86% 30.37 in 10.0 mi Calm Calm - N/A   Clear
5:35 AM 30.2 °F - 26.6 °F 86% 30.37 in 10.0 mi Calm Calm - N/A   Clear
5:55 AM 28.4 °F - 24.8 °F 86% 30.38 in 10.0 mi Calm Calm - N/A   Clear
6:15 AM 28.4 °F - 26.6 °F 93% 30.39 in 10.0 mi Calm Calm - N/A   Clear
6:35 AM 28.4 °F - 24.8 °F 86% 30.40 in 10.0 mi Calm Calm - N/A   Clear
6:55 AM 28.4 °F - 24.8 °F 86% 30.40 in 10.0 mi Calm Calm - N/A   Clear
7:15 AM 26.6 °F - 23.0 °F 86% 30.41 in 10.0 mi Calm Calm - N/A   Clear
7:35 AM 28.4 °F - 26.6 °F 93% 30.42 in 10.0 mi Calm Calm - N/A   Clear
7:55 AM 26.6 °F - 23.0 °F 86% 30.42 in 10.0 mi Calm Calm - N/A   Clear
8:15 AM 28.4 °F - 26.6 °F 93% 30.42 in 10.0 mi Calm Calm - N/A   Clear
8:35 AM 26.6 °F - 24.8 °F 93% 30.43 in 10.0 mi Calm Calm - N/A   Clear
8:55 AM 28.4 °F - 26.6 °F 93% 30.43 in 10.0 mi Calm Calm - N/A   Clear
9:15 AM 28.4 °F - 26.6 °F 93% 30.44 in 10.0 mi Calm Calm - N/A   Clear
9:35 AM 32.0 °F - 28.4 °F 87% 30.45 in 10.0 mi Calm Calm - N/A   Clear
9:55 AM 32.0 °F - 30.2 °F 93% 30.45 in 10.0 mi Calm Calm - N/A   Clear
10:15 AM 33.8 °F - 30.2 °F 87% 30.46 in 10.0 mi Calm Calm - N/A   Clear
10:35 AM 35.6 °F - 30.2 °F 81% 30.46 in 10.0 mi Calm Calm - N/A   Clear
10:55 AM 37.4 °F - 30.2 °F 75% 30.46 in 10.0 mi Calm Calm - N/A   Clear
11:15 AM 39.2 °F - 30.2 °F 70% 30.47 in 10.0 mi Calm Calm - N/A   Clear
11:35 AM 41.0 °F - 28.4 °F 61% 30.47 in 10.0 mi Calm Calm - N/A   Clear
11:55 AM 41.0 °F - 28.4 °F 61% 30.47 in 10.0 mi Calm Calm - N/A   Clear
12:15 PM 41.0 °F - 26.6 °F 57% 30.48 in 10.0 mi Calm Calm - N/A   Clear
12:35 PM 42.8 °F - 26.6 °F 53% 30.47 in 10.0 mi Calm Calm - N/A   Clear
12:55 PM 42.8 °F - 26.6 °F 53% 30.46 in 10.0 mi Calm Calm - N/A   Clear
1:15 PM 44.6 °F - 28.4 °F 53% 30.45 in 10.0 mi Calm Calm - N/A   Clear
1:35 PM 44.6 °F - 28.4 °F 53% 30.45 in 10.0 mi Calm Calm - N/A   Clear
1:55 PM 44.6 °F - 26.6 °F 49% 30.45 in 10.0 mi Calm Calm - N/A   Clear
2:15 PM 44.6 °F - 24.8 °F 46% 30.45 in 10.0 mi Calm Calm - N/A   Clear
2:35 PM 46.4 °F - 24.8 °F 43% 30.44 in 10.0 mi Calm Calm - N/A   Clear
2:55 PM 46.4 °F - 23.0 °F 40% 30.43 in 10.0 mi Calm Calm - N/A   Clear
3:15 PM 46.4 °F 45.2 °F 23.0 °F 40% 30.43 in 10.0 mi North 3.5 mph - N/A   Clear
3:35 PM 46.4 °F - 23.0 °F 40% 30.43 in 10.0 mi Calm Calm - N/A   Clear
3:55 PM 46.4 °F - 23.0 °F 40% 30.43 in 10.0 mi Calm Calm - N/A   Clear
4:15 PM 46.4 °F - 23.0 °F 40% 30.43 in 10.0 mi Calm Calm - N/A   Clear
4:35 PM 46.4 °F 44.3 °F 21.2 °F 37% 30.43 in 10.0 mi NE 4.6 mph - N/A   Clear
4:55 PM 46.4 °F - 21.2 °F 37% 30.43 in 10.0 mi Calm Calm - N/A   Clear
5:15 PM 46.4 °F - 21.2 °F 37% 30.43 in 10.0 mi Calm Calm - N/A   Clear
5:35 PM 46.4 °F - 21.2 °F 37% 30.44 in 10.0 mi Calm Calm - N/A   Clear
5:55 PM 44.6 °F - 21.2 °F 39% 30.44 in 10.0 mi Calm Calm - N/A   Clear
6:15 PM 44.6 °F - 21.2 °F 39% 30.45 in 10.0 mi Calm Calm - N/A   Clear
6:35 PM 42.8 °F - 21.2 °F 42% 30.45 in 10.0 mi Calm Calm - N/A   Clear
6:55 PM 42.8 °F - 23.0 °F 46% 30.45 in 10.0 mi Calm Calm - N/A   Clear
7:15 PM 42.8 °F - 23.0 °F 46% 30.45 in 10.0 mi Calm Calm - N/A   Clear
7:35 PM 41.0 °F - 23.0 °F 49% 30.45 in 10.0 mi Calm Calm - N/A   Clear
7:55 PM 41.0 °F - 23.0 °F 49% 30.45 in 10.0 mi Calm Calm - N/A   Clear
8:15 PM 41.0 °F - 23.0 °F 49% 30.46 in 10.0 mi Calm Calm - N/A   Clear
8:35 PM 39.2 °F - 23.0 °F 52% 30.46 in 10.0 mi Calm Calm - N/A   Clear
8:55 PM 37.4 °F - 24.8 °F 60% 30.46 in 10.0 mi Calm Calm - N/A   Clear
9:15 PM 37.4 °F - 24.8 °F 60% 30.46 in 10.0 mi Calm Calm - N/A   Clear
9:35 PM 37.4 °F - 24.8 °F 60% 30.47 in 10.0 mi Calm Calm - N/A   Clear
9:55 PM 37.4 °F - 24.8 °F 60% 30.47 in 10.0 mi Calm Calm - N/A   Clear
10:15 PM 35.6 °F - 24.8 °F 65% 30.47 in 10.0 mi Calm Calm - N/A   Clear
10:35 PM 33.8 °F - 24.8 °F 70% 30.49 in 10.0 mi Calm Calm - N/A   Clear
10:55 PM 32.0 °F - 26.6 °F 80% 30.49 in 10.0 mi Calm Calm - N/A   Clear
11:15 PM 32.0 °F - 26.6 °F 80% 30.49 in 10.0 mi Calm Calm - N/A   Clear
11:35 PM 33.8 °F - 26.6 °F 75% 30.49 in 10.0 mi Calm Calm - N/A   Clear
11:55 PM 33.8 °F - 26.6 °F 75% 30.49 in 10.0 mi Calm Calm - N/A   Clear